{"data":{"norad_id":57833,"epoch":"2026-09-22T23:40:33.834144Z","epoch_age_seconds":94048,"freshness":"FRESH","line1":"1 57833U 23139D   26265.98650271  .00000122  00000+0  55650-4 0  9992","line2":"2 57833  85.9938 215.3322 0002698  96.2340 263.9151 14.12463151156611","mean_motion":14.12463151,"eccentricity":0.0002698,"inclination_deg":85.9938,"raan_deg":215.3322,"arg_perigee_deg":96.234,"mean_anomaly_deg":263.9151,"bstar":5.565e-5,"rev_number":15661,"period_min":101.9495622934,"perigee_km":849.00467718236,"apogee_km":852.90549527209,"semimajor_km":7229.0920862272,"source":"CELESTRAK","updated_at":"2026-09-23T09:00:18.390867Z"}}